This is the latest recevied weather packets stored in our database for station/object KLEMETTI. If no packets are shown the sender has not sent any weather packets the latest 10 day(s).
| Time | Temp. | Humidity | Pressure | Rain* | Wind** | Luminosity | Snow |
|---|---|---|---|---|---|---|---|
| 1777854436 | 0° C | 94% | 1007.4 hPa | 0 mm | - | - | - |
| 1777853235 | 0.56° C | 95% | 1007.6 hPa | 0 mm | - | - | - |
| 1777852035 | 1.11° C | 93% | 1007.6 hPa | 0 mm | - | - | - |
| 1777850835 | 1.67° C | 91% | 1007.9 hPa | 0 mm | - | - | - |
| 1777849635 | 1.67° C | 91% | 1007.9 hPa | 0 mm | - | - | - |
| 1777848435 | 2.78° C | 90% | 1007.9 hPa | 0 mm | - | - | - |
| 1777847234 | 2.78° C | 84% | 1007.8 hPa | 0 mm | - | - | - |
| 1777846035 | 3.33° C | 81% | 1008 hPa | 0 mm | - | - | - |
| 1777844834 | 3.33° C | 82% | 1008.2 hPa | 0 mm | - | - | - |
| 1777843634 | 3.33° C | 81% | 1008.3 hPa | 0 mm | - | - | - |
| 1777842435 | 3.89° C | 78% | 1008.4 hPa | 0 mm | - | - | - |
| 1777841235 | 3.89° C | 78% | 1008.5 hPa | 0 mm | - | - | - |
| 1777840034 | 4.44° C | 74% | 1008.6 hPa | 0 mm | - | - | - |
| 1777838834 | 4.44° C | 71% | 1008.8 hPa | 0 mm | - | - | - |
| 1777837634 | 4.44° C | 68% | 1008.9 hPa | 0 mm | - | - | - |
| 1777836433 | 5° C | 63% | 1008.8 hPa | 0 mm | - | - | - |
| 1777835234 | 5.56° C | 61% | 1008.8 hPa | 0 mm | - | - | - |
| 1777834034 | 5.56° C | 58% | 1008.8 hPa | 0 mm | - | - | - |
| 1777832833 | 6.11° C | 57% | 1008.7 hPa | 0 mm | - | - | - |
| 1777831634 | 6.67° C | 55% | 1008.6 hPa | 0 mm | - | - | - |
| 1777830434 | 6.67° C | 53% | 1008.5 hPa | 0 mm | - | - | - |
| 1777829240 | 6.67° C | 54% | 1008.4 hPa | 0 mm | - | - | - |
| 1777828033 | 6.67° C | 57% | 1008.5 hPa | 0 mm | - | - | - |
| 1777826833 | 7.22° C | 54% | 1008.6 hPa | 0 mm | - | - | - |
| 1777825632 | 7.78° C | 53% | 1008.7 hPa | 0 mm | - | - | - |
* Rain latest hour (hover to see other rain measurements)
** Current wind speed in m/s (hover to see current wind gust speed)